Time,TemperatureF,DewpointF,PressureIn,WindDirection,WindDirectionDegrees,WindSpeedMPH,WindSpeedGustMPH,Humidity,HourlyPrecipIn,Conditions,Clouds,dailyrainin,SolarRadiationWatts/m^2,SoftwareType,DateUTC
2013-02-21 00:00:00,-9.0,-15.0,-100.00,ENE,57,0.0,4.0,73,-99.99,,,0.00,1.000000,,2013-02-21 06:00:00,
2013-02-21 01:01:00,-9.0,-15.0,-100.00,NE,46,2.0,3.0,74,-99.99,,,0.00,1.000000,,2013-02-21 07:01:00,
2013-02-21 02:01:00,4.0,-1.0,-100.00,NE,49,4.0,7.0,81,-99.99,,,0.00,1.000000,,2013-02-21 08:01:00,
2013-02-21 02:11:00,4.0,-1.0,-100.00,NE,49,4.0,7.0,81,-99.99,,,0.00,1.000000,,2013-02-21 08:11:00,
2013-02-21 02:21:00,4.0,-1.0,-100.00,NE,49,4.0,7.0,81,-99.99,,,0.00,1.000000,,2013-02-21 08:21:00,
2013-02-21 02:32:00,4.0,-1.0,-100.00,NE,49,4.0,7.0,81,-99.99,,,0.00,1.000000,,2013-02-21 08:32:00,
2013-02-21 03:01:00,5.0,0.0,-100.00,NE,39,4.0,7.0,81,0.00,,,0.00,1.000000,,2013-02-21 09:01:00,
2013-02-21 03:11:00,5.0,0.0,-100.00,NE,39,4.0,7.0,81,0.00,,,0.00,1.000000,,2013-02-21 09:11:00,
2013-02-21 03:22:00,5.0,0.0,-100.00,NE,39,4.0,7.0,81,0.00,,,0.00,1.000000,,2013-02-21 09:22:00,
2013-02-21 03:31:00,5.0,0.0,-100.00,NE,39,4.0,7.0,81,0.00,,,0.00,1.000000,,2013-02-21 09:31:00,
2013-02-21 03:52:00,6.0,2.0,-100.00,NNE,29,3.0,8.0,82,0.00,,,0.00,1.000000,,2013-02-21 09:52:00,
2013-02-21 04:01:00,6.0,2.0,-100.00,NNE,29,3.0,8.0,82,0.00,,,0.00,1.000000,,2013-02-21 10:01:00,
2013-02-21 04:11:00,6.0,2.0,-100.00,NNE,29,3.0,8.0,82,0.00,,,0.00,1.000000,,2013-02-21 10:11:00,
2013-02-21 04:21:00,6.0,2.0,-100.00,NNE,29,3.0,8.0,82,0.00,,,0.00,1.000000,,2013-02-21 10:21:00,
2013-02-21 04:31:00,6.0,2.0,-100.00,NNE,29,3.0,8.0,82,0.00,,,0.00,1.000000,,2013-02-21 10:31:00,
2013-02-21 04:51:00,6.0,2.0,-100.00,NNE,30,3.0,5.0,82,0.00,,,0.00,1.000000,,2013-02-21 10:51:00,
2013-02-21 05:01:00,6.0,2.0,-100.00,NNE,30,3.0,5.0,82,0.00,,,0.00,1.000000,,2013-02-21 11:01:00,
2013-02-21 05:11:00,6.0,2.0,-100.00,NNE,30,3.0,5.0,82,0.00,,,0.00,1.000000,,2013-02-21 11:11:00,
2013-02-21 05:21:00,6.0,2.0,-100.00,NNE,30,3.0,5.0,82,0.00,,,0.00,1.000000,,2013-02-21 11:21:00,
2013-02-21 05:31:00,6.0,2.0,-100.00,NNE,30,3.0,5.0,82,0.00,,,0.00,1.000000,,2013-02-21 11:31:00,
2013-02-21 06:01:00,6.0,2.0,-100.00,NE,46,4.0,6.0,82,0.00,,,0.00,1.000000,,2013-02-21 12:01:00,
2013-02-21 06:11:00,6.0,2.0,-100.00,NE,46,4.0,6.0,82,0.00,,,0.00,1.000000,,2013-02-21 12:11:00,
2013-02-21 06:21:00,6.0,2.0,-100.00,NE,46,4.0,6.0,82,0.00,,,0.00,1.000000,,2013-02-21 12:21:00,
2013-02-21 06:32:00,6.0,2.0,-100.00,NE,46,4.0,6.0,82,0.00,,,0.00,1.000000,,2013-02-21 12:32:00,
2013-02-21 07:02:00,7.0,3.0,-100.00,NE,39,4.0,6.0,83,0.00,,,0.00,1.000000,,2013-02-21 13:02:00,
2013-02-21 07:12:00,7.0,3.0,-100.00,NE,39,4.0,6.0,83,0.00,,,0.00,1.000000,,2013-02-21 13:12:00,
2013-02-21 07:22:00,7.0,3.0,-100.00,NE,39,4.0,6.0,83,0.00,,,0.00,1.000000,,2013-02-21 13:22:00,
2013-02-21 07:32:00,7.0,3.0,-100.00,NE,39,4.0,6.0,83,0.00,,,0.00,1.000000,,2013-02-21 13:32:00,
2013-02-21 08:02:00,7.0,3.0,-100.00,NE,56,4.0,7.0,82,0.00,,,0.00,12.000000,,2013-02-21 14:02:00,
2013-02-21 08:11:00,7.0,3.0,-100.00,NE,56,4.0,7.0,82,0.00,,,0.00,12.000000,,2013-02-21 14:11:00,
2013-02-21 08:21:00,7.0,3.0,-100.00,NE,56,4.0,7.0,82,0.00,,,0.00,12.000000,,2013-02-21 14:21:00,
2013-02-21 08:32:00,7.0,3.0,-100.00,NE,56,4.0,7.0,82,0.00,,,0.00,12.000000,,2013-02-21 14:32:00,
2013-02-21 09:01:00,9.0,5.0,-100.00,ENE,66,5.0,9.0,82,0.00,,,0.00,62.000000,,2013-02-21 15:01:00,
2013-02-21 09:12:00,9.0,5.0,-100.00,ENE,66,5.0,9.0,82,0.00,,,0.00,62.000000,,2013-02-21 15:12:00,
2013-02-21 09:21:00,9.0,5.0,-100.00,ENE,66,5.0,9.0,82,0.00,,,0.00,62.000000,,2013-02-21 15:21:00,
2013-02-21 09:32:00,9.0,5.0,-100.00,ENE,66,5.0,9.0,82,0.00,,,0.00,62.000000,,2013-02-21 15:32:00,
2013-02-21 10:01:00,13.0,8.0,-100.00,ENE,67,3.0,8.0,81,0.00,,,0.00,167.000000,,2013-02-21 16:01:00,
2013-02-21 10:12:00,13.0,8.0,-100.00,ENE,67,3.0,8.0,81,0.00,,,0.00,167.000000,,2013-02-21 16:12:00,
2013-02-21 10:22:00,13.0,8.0,-100.00,ENE,67,3.0,8.0,81,0.00,,,0.00,167.000000,,2013-02-21 16:22:00,
2013-02-21 10:32:00,13.0,8.0,-100.00,ENE,67,3.0,8.0,81,0.00,,,0.00,167.000000,,2013-02-21 16:32:00,
2013-02-21 11:01:00,18.0,12.0,-100.00,North,358,2.0,3.0,76,0.00,,,0.00,268.000000,,2013-02-21 17:01:00,
2013-02-21 11:11:00,18.0,12.0,-100.00,North,358,2.0,3.0,76,0.00,,,0.00,268.000000,,2013-02-21 17:11:00,
2013-02-21 11:21:00,18.0,12.0,-100.00,North,358,2.0,3.0,76,0.00,,,0.00,268.000000,,2013-02-21 17:21:00,
2013-02-21 11:32:00,18.0,12.0,-100.00,North,358,2.0,3.0,76,0.00,,,0.00,268.000000,,2013-02-21 17:32:00,
2013-02-21 12:02:00,20.0,12.0,-100.00,NE,47,6.0,10.0,70,0.00,,,0.00,436.000000,,2013-02-21 18:02:00,
2013-02-21 12:11:00,20.0,12.0,-100.00,NE,47,6.0,10.0,70,0.00,,,0.00,436.000000,,2013-02-21 18:11:00,
2013-02-21 12:22:00,20.0,12.0,-100.00,NE,47,6.0,10.0,70,0.00,,,0.00,436.000000,,2013-02-21 18:22:00,
2013-02-21 12:31:00,20.0,12.0,-100.00,NE,47,6.0,10.0,70,0.00,,,0.00,436.000000,,2013-02-21 18:31:00,
2013-02-21 13:01:00,22.0,13.0,-100.00,NE,39,6.0,11.0,67,0.06,,,0.06,602.000000,,2013-02-21 19:01:00,
2013-02-21 13:12:00,22.0,13.0,-100.00,NE,39,6.0,11.0,67,0.06,,,0.06,602.000000,,2013-02-21 19:12:00,
2013-02-21 13:21:00,22.0,13.0,-100.00,NE,39,6.0,11.0,67,0.06,,,0.06,602.000000,,2013-02-21 19:21:00,
2013-02-21 13:31:00,22.0,13.0,-100.00,NE,39,6.0,11.0,67,0.06,,,0.06,602.000000,,2013-02-21 19:31:00,
2013-02-21 13:52:00,25.0,14.0,-100.00,NE,49,5.0,10.0,63,0.02,,,0.08,540.000000,,2013-02-21 19:52:00,
2013-02-21 14:01:00,25.0,14.0,-100.00,NE,49,5.0,10.0,63,0.02,,,0.08,540.000000,,2013-02-21 20:01:00,
2013-02-21 14:11:00,25.0,14.0,-100.00,NE,49,5.0,10.0,63,0.02,,,0.08,540.000000,,2013-02-21 20:11:00,
2013-02-21 14:21:00,25.0,14.0,-100.00,NE,49,5.0,10.0,63,0.02,,,0.08,540.000000,,2013-02-21 20:21:00,
2013-02-21 14:32:00,25.0,14.0,-100.00,NE,49,5.0,10.0,63,0.02,,,0.08,540.000000,,2013-02-21 20:32:00,
2013-02-21 15:02:00,23.0,14.0,-100.00,NE,44,7.0,12.0,67,0.00,,,0.08,374.000000,,2013-02-21 21:02:00,
2013-02-21 15:11:00,23.0,14.0,-100.00,NE,44,7.0,12.0,67,0.00,,,0.08,374.000000,,2013-02-21 21:11:00,
2013-02-21 15:21:00,23.0,14.0,-100.00,NE,44,7.0,12.0,67,0.00,,,0.08,374.000000,,2013-02-21 21:21:00,
2013-02-21 15:31:00,23.0,14.0,-100.00,NE,44,7.0,12.0,67,0.00,,,0.08,374.000000,,2013-02-21 21:31:00,
2013-02-21 16:01:00,23.0,14.0,-100.00,NE,52,6.0,10.0,67,0.00,,,0.08,321.000000,,2013-02-21 22:01:00,
2013-02-21 16:11:00,23.0,14.0,-100.00,NE,52,6.0,10.0,67,0.00,,,0.08,321.000000,,2013-02-21 22:11:00,
2013-02-21 16:21:00,23.0,14.0,-100.00,NE,52,6.0,10.0,67,0.00,,,0.08,321.000000,,2013-02-21 22:21:00,
2013-02-21 16:31:00,23.0,14.0,-100.00,NE,52,6.0,10.0,67,0.00,,,0.08,321.000000,,2013-02-21 22:31:00,
2013-02-21 17:01:00,21.0,14.0,-100.00,NE,49,7.0,14.0,74,0.00,,,0.08,148.000000,,2013-02-21 23:01:00,
2013-02-21 17:11:00,21.0,14.0,-100.00,NE,49,7.0,14.0,74,0.00,,,0.08,148.000000,,2013-02-21 23:11:00,
2013-02-21 17:21:00,21.0,14.0,-100.00,NE,49,7.0,14.0,74,0.00,,,0.08,148.000000,,2013-02-21 23:21:00,
2013-02-21 17:32:00,21.0,14.0,-100.00,NE,49,7.0,14.0,74,0.00,,,0.08,148.000000,,2013-02-21 23:32:00,
2013-02-21 17:52:00,18.0,14.0,-100.00,ENE,57,5.0,13.0,83,0.00,,,0.08,25.000000,,2013-02-21 23:52:00,
2013-02-21 18:01:00,18.0,14.0,-100.00,ENE,57,5.0,13.0,83,0.00,,,0.08,25.000000,,2013-02-22 00:01:00,
2013-02-21 18:11:00,18.0,14.0,-100.00,ENE,57,5.0,13.0,83,0.00,,,0.08,25.000000,,2013-02-22 00:11:00,
2013-02-21 18:21:00,18.0,14.0,-100.00,ENE,57,5.0,13.0,83,0.00,,,0.08,25.000000,,2013-02-22 00:21:00,
2013-02-21 18:32:00,18.0,14.0,-100.00,ENE,57,5.0,13.0,83,0.00,,,0.08,25.000000,,2013-02-22 00:32:00,
2013-02-21 19:01:00,17.0,14.0,-100.00,ENE,68,6.0,13.0,88,0.00,,,0.08,1.000000,,2013-02-22 01:01:00,
2013-02-21 19:11:00,17.0,14.0,-100.00,ENE,68,6.0,13.0,88,0.00,,,0.08,1.000000,,2013-02-22 01:11:00,
2013-02-21 19:21:00,17.0,14.0,-100.00,ENE,68,6.0,13.0,88,0.00,,,0.08,1.000000,,2013-02-22 01:21:00,
2013-02-21 19:32:00,17.0,14.0,-100.00,ENE,68,6.0,13.0,88,0.00,,,0.08,1.000000,,2013-02-22 01:32:00,
2013-02-21 20:02:00,17.0,14.0,-100.00,East,79,8.0,16.0,87,0.00,,,0.08,1.000000,,2013-02-22 02:02:00,
2013-02-21 20:11:00,17.0,14.0,-100.00,East,79,8.0,16.0,87,0.00,,,0.08,1.000000,,2013-02-22 02:11:00,
2013-02-21 20:21:00,17.0,14.0,-100.00,East,79,8.0,16.0,87,0.00,,,0.08,1.000000,,2013-02-22 02:21:00,
2013-02-21 20:31:00,17.0,14.0,-100.00,East,79,8.0,16.0,87,0.00,,,0.08,1.000000,,2013-02-22 02:31:00,
2013-02-21 21:01:00,18.0,15.0,-100.00,East,86,6.0,17.0,89,0.00,,,0.08,1.000000,,2013-02-22 03:01:00,
2013-02-21 21:11:00,18.0,15.0,-100.00,East,86,6.0,17.0,89,0.00,,,0.08,1.000000,,2013-02-22 03:11:00,
2013-02-21 21:21:00,18.0,15.0,-100.00,East,86,6.0,17.0,89,0.00,,,0.08,1.000000,,2013-02-22 03:21:00,
2013-02-21 21:32:00,18.0,15.0,-100.00,East,86,6.0,17.0,89,0.00,,,0.08,1.000000,,2013-02-22 03:32:00,
2013-02-21 22:02:00,18.0,16.0,-100.00,East,96,6.0,11.0,90,0.00,,,0.08,1.000000,,2013-02-22 04:02:00,
2013-02-21 22:11:00,18.0,16.0,-100.00,East,96,6.0,11.0,90,0.00,,,0.08,1.000000,,2013-02-22 04:11:00,
2013-02-21 22:21:00,18.0,16.0,-100.00,East,96,6.0,11.0,90,0.00,,,0.08,1.000000,,2013-02-22 04:21:00,
2013-02-21 22:32:00,18.0,16.0,-100.00,East,96,6.0,11.0,90,0.00,,,0.08,1.000000,,2013-02-22 04:32:00,
2013-02-21 23:02:00,19.0,17.0,-100.00,East,88,5.0,11.0,90,0.00,,,0.08,1.000000,,2013-02-22 05:02:00,
2013-02-21 23:12:00,19.0,17.0,-100.00,East,88,5.0,11.0,90,0.00,,,0.08,1.000000,,2013-02-22 05:12:00,
2013-02-21 23:22:00,19.0,17.0,-100.00,East,88,5.0,11.0,90,0.00,,,0.08,1.000000,,2013-02-22 05:22:00,
2013-02-21 23:32:00,19.0,17.0,-100.00,East,88,5.0,11.0,90,0.00,,,0.08,1.000000,,2013-02-22 05:32:00,